Terug naar catalogus

YEYA-2

ActiefWetenschapSSO
NORAD 67288·PAYLOAD·🇷🇺 Russia
Deze satellietnaam is nog niet bevestigd door officiële bronnen.

Gelanceerd Dec 28, 2025 vanaf Vostochny Cosmodrome

Loading…

Volgende Passages (komende 24 uur)

TLE

VersSource: Space-Track

Epoch: Sep 14, 2026, 11:02 UTC

1 67288U 25313AS  26257.46006814  .00003861  00000-0  16259-3 0  9990
2 67288  97.3852 330.8725 0012180  42.5676 317.6503 15.23888044 39557

Volg YEYA-2 in realtime met AllMySat

Download on the App Store